Location: Casilda
(33.0440°S, 61.1680°W)
Time: 19:33:28
(UTC-03:00)

ISS - Pass Details

Date: 14 April 2026
Orbit: 416 x 425 km, 51.6° (Epoch: 18 April)

Event Time Altitude Azimuth Distance (km) Brightness Sun altitude
Rises 19:45:04 0° 273° (W) 2,380 2.1 -13.6°
Reaches altitude 10° 19:47:51 10° 249° (WSW) 1,519 0.2 -14.2°
Maximum altitude 19:49:55 15° 211° (SSW) 1,249 -1.0 -14.7°
Drops below altitude 10° 19:52:00 10° 174° (S) 1,523 -1.0 -15.1°
Enters shadow 19:53:09 - 161° (SSE) 1,843 -0.7 -15.3°
